[[{"header":{"parameterUnit":"m.s-1","parameterCategory":1,"la1":30.2991,"la2":30.254,"lo1":-89.0895,"lo2":-89.0444,"dx":0.0017,"dy":0.0017,"nx":28,"ny":28,"refTime":"2023-01-12T15:00:00:Z","depth":0,"parameterNumber":2,"parameterNumberName":"U-component_of_WINDS"},"data":[0,0,0,0,0,0,0,0,0,0,0,0,0,0,0,0,0,0,0,0,0,0,0,0,0,0,0,0,0,0,0,0,0,0,0,0,0,0,0,0,0,0,0,0,0,0,0,0,0,0,0,0,0,0,0,0,0,0,2.7235,2.7235,0,2.723,2.723,2.723,2.7186,2.7184,2.7183,2.7182,2.7177,2.7177,2.7178,0,0,0,0,0,0,0,0,0,0,0,0,0,2.7208,2.7208,2.7235,2.7235,2.7235,2.723,2.723,2.723,2.7186,2.7184,2.7183,2.7182,2.7176,2.7177,2.7178,0,0,0,0,0,0,0,0,0,0,0,0,0,2.7213,2.7209,2.7235,2.7213,2.721,2.723,2.723,2.723,2.7186,2.7184,2.7183,2.7181,2.7176,2.7177,2.7179,2.722,0,0,2.7183,2.7183,0,0,0,0,0,0,0,0,2.7213,2.7214,2.7216,2.7214,2.7212,2.7207,2.7218,2.7227,2.7186,2.7195,2.7182,2.718,2.7188,2.7188,2.7191,2.722,2.7219,2.7183,2.7183,2.7184,2.7184,0,0,0,0,0,0,0,2.7212,2.7214,2.7233,2.7216,2.7214,2.7203,2.7202,2.722,2.7201,2.7194,2.7191,2.7191,2.7186,2.719,2.719,2.7219,2.7183,2.7184,2.7185,2.7185,2.7283,2.7285,0,0,0,0,0,0,2.7215,2.7214,2.7233,2.7233,2.7208,2.7205,2.7203,2.721,2.7201,2.7198,2.7193,2.7189,2.7188,2.7189,2.719,2.7238,2.7184,2.7185,2.7186,2.7282,2.7284,2.7286,0,0,0,0,0,0,2.7215,2.7217,2.7234,2.7223,2.7224,2.7207,2.7215,2.7211,2.7214,2.7199,2.7196,2.7199,2.7187,2.7188,2.7213,2.7238,2.7186,2.7187,2.7279,2.7282,2.7285,2.7336,0,0,0,0,0,0,2.7214,2.7217,2.7232,2.7223,2.7225,2.7257,2.7216,2.7212,2.7216,2.7212,2.7205,2.7202,2.7186,2.7211,2.7215,2.7239,2.7188,2.7277,2.7281,2.7284,2.7332,2.734,2.7347,0,0,0,0,0,2.7213,2.7246,2.7233,2.7236,2.7243,2.7258,2.7259,2.724,2.7219,2.7234,2.7225,2.7202,2.7235,2.7214,2.7217,2.7242,2.7276,2.728,2.7284,2.7328,2.7338,2.7346,0,0,0,0,0,0,2.7258,2.7245,2.723,2.7261,2.7261,2.7251,2.7269,2.7251,2.7257,2.7252,2.7228,2.7227,2.7256,2.7252,2.7229,2.7283,2.7251,2.7256,2.7284,2.7293,2.7301,2.7301,2.7189,0,0,0,0,0,2.7272,2.7285,2.7273,2.7301,2.7302,2.7286,2.7292,2.7278,2.7276,2.7276,2.7268,2.7268,2.7279,2.7286,2.7295,2.7331,2.7329,2.735,2.7358,2.7364,2.7368,2.7388,2.7398,2.7299,2.7299,2.7299,0,0,2.73,2.7294,2.7304,2.731,2.7309,2.7323,2.7286,2.7303,2.7313,2.7278,2.7302,2.7297,2.7295,2.7327,2.734,2.7324,2.7395,2.7369,2.7374,2.7375,2.7394,2.7403,2.7411,2.7302,2.7302,2.7301,0,0,2.7358,2.7355,2.7379,2.7379,2.7377,2.7367,2.7373,2.7365,2.7361,2.7384,2.7358,2.7371,2.7389,2.739,2.7392,2.7454,2.7433,2.7457,2.7496,2.7516,2.7524,2.7531,2.7553,2.7561,2.7462,2.7462,2.7462,0,2.7393,2.7414,2.7394,2.7413,2.7417,2.7387,2.7412,2.7412,2.7414,2.7417,2.74,2.7423,2.742,2.7451,2.7467,2.747,2.7476,2.7457,2.7524,2.7531,2.7537,2.7558,2.7566,2.7465,2.7465,2.7464,2.7464,0,2.7457,2.7472,2.7492,2.7495,2.7501,2.7523,2.7507,2.7516,2.7502,2.7494,2.7519,2.7514,2.7522,2.7529,2.7515,2.7559,2.7549,2.7529,2.7496,2.755,2.7569,2.7577,2.7469,2.7468,2.7467,2.7466,0,0,2.7541,2.7535,2.7542,2.7544,2.7541,2.7552,2.7574,2.7582,2.7591,2.7593,2.7611,2.7628,2.7609,2.7612,2.7598,2.7616,2.7666,2.7593,2.7593,2.7607,2.7716,2.7731,2.7741,2.7653,2.7655,2.7656,2.7716,0,2.7597,2.7633,2.7617,2.7654,2.7669,2.7642,2.7661,2.7661,2.7655,2.7666,2.7659,2.7672,2.7646,2.7648,2.7664,2.7657,2.7688,2.7652,2.7669,2.767,2.767,2.7751,2.7767,2.7823,2.7723,2.7725,2.7725,0,2.7667,2.7674,2.7713,2.7709,2.7715,2.7732,2.7739,2.775,2.7751,2.7745,2.775,2.7733,2.7754,2.7723,2.7753,2.7729,2.7735,2.7733,2.7735,2.7735,2.77,2.7753,2.7841,2.785,2.7737,2.7736,2.7735,0,2.7725,2.7744,2.777,2.7772,2.7769,2.7782,2.7781,2.778,2.7787,2.7793,2.7797,2.7807,2.7811,2.7819,2.7805,2.7784,2.7837,2.7804,2.7832,2.7833,2.7844,2.7843,2.7934,2.7849,2.7849,2.7849,2.7848,0,2.7789,2.7814,2.7796,2.7812,2.784,2.7822,2.7851,2.7847,2.7847,2.7862,2.784,2.7855,2.7835,2.7849,2.7838,2.7864,2.7867,2.7863,2.7859,2.7864,2.7865,2.7867,2.7863,2.7851,2.785,2.785,2.7849,0,2.7858,2.7847,2.7874,2.7869,2.7869,2.7889,2.7885,2.79,2.7893,2.7913,2.7916,2.7905,2.792,2.7907,2.7921,2.7913,2.7949,2.794,2.7949,2.7946,2.7975,2.7972,2.807,2.8082,2.799,2.7991,2.7991,0,2.7899,2.7918,2.7916,2.7925,2.7926,2.794,2.7948,2.7932,2.794,2.7944,2.7959,2.7972,2.7981,2.8006,2.7999,2.801,2.8001,2.8035,2.8002,2.8007,2.8002,2.8001,2.8003,2.8041,2.8042,2.8043,2.8044,0,2.7974,2.7969,2.798,2.799,2.8,2.8006,2.8012,2.802,2.8004,2.8015,2.803,2.8038,2.8053,2.8066,2.8075,2.8075,2.8057,2.8054,2.8061,2.8066,2.807,2.8069,2.7966,2.8052,2.8051,2.805,2.805,2.8049,2.803,2.8047,2.8048,2.8062,2.8065,2.8071,2.8085,2.8081,2.8093,2.8104,2.8094,2.8113,2.8115,2.8126,2.8127,2.8142,2.8128,2.8138,2.8141,2.8143,2.8148,2.8069,2.8143,2.8143,2.8143,2.8143,2.8143,0,2.8104,2.8105,2.8118,2.8127,2.8138,2.8121,2.8127,2.8137,2.8154,2.8158,2.8168,2.8187,2.82,2.8195,2.8207,2.822,2.8212,2.8224,2.8222,2.8223,2.8159,2.8152,2.823,2.823,2.823,2.823,2.823,2.823,2.8144,2.8171,2.8166,2.8194,2.8194,2.8212,2.8217,2.8223,2.8226,2.8248,2.8259,2.8256,2.8257,2.8269,2.8281,2.8279,2.8285,2.8299,2.8295,2.8235,2.8227,2.8219,2.8212,2.8301,2.8301,2.8357,2.8357,2.8358]},{"header":{"parameterUnit":"m.s-1","parameterCategory":1,"la1":30.2991,"la2":30.254,"lo1":-89.0895,"lo2":-89.0444,"dx":0.0017,"dy":0.0017,"nx":28,"ny":28,"refTime":"2023-01-12T15:00:00:Z","depth":0,"parameterNumber":3,"parameterNumberName":"V-component_of_WINDS"},"data":[0,0,0,0,0,0,0,0,0,0,0,0,0,0,0,0,0,0,0,0,0,0,0,0,0,0,0,0,0,0,0,0,0,0,0,0,0,0,0,0,0,0,0,0,0,0,0,0,0,0,0,0,0,0,0,0,0,0,-8.4245,-8.4247,0,-8.4444,-8.4447,-8.4449,-8.4424,-8.4421,-8.4418,-8.4415,-8.4612,-8.462,-8.4628,0,0,0,0,0,0,0,0,0,0,0,0,0,-8.3837,-8.3845,-8.4245,-8.4247,-8.425,-8.4444,-8.4447,-8.445,-8.4425,-8.4421,-8.4417,-8.4413,-8.4609,-8.4619,-8.4629,0,0,0,0,0,0,0,0,0,0,0,0,0,-8.4023,-8.3847,-8.4244,-8.4261,-8.4265,-8.4444,-8.4447,-8.445,-8.4426,-8.4421,-8.4416,-8.4411,-8.4606,-8.4618,-8.463,-8.4803,0,0,-8.4668,-8.4673,0,0,0,0,0,0,0,0,-8.4012,-8.4038,-8.4256,-8.426,-8.4265,-8.4405,-8.4375,-8.4568,-8.4427,-8.4364,-8.4415,-8.4409,-8.4546,-8.4563,-8.4611,-8.4812,-8.482,-8.4669,-8.4676,-8.4682,-8.4685,0,0,0,0,0,0,0,-8.4,-8.4029,-8.4324,-8.4259,-8.4265,-8.4257,-8.4278,-8.4412,-8.4479,-8.4369,-8.4368,-8.4392,-8.4547,-8.4599,-8.4615,-8.4823,-8.4668,-8.4679,-8.4687,-8.4692,-8.5177,-8.5182,0,0,0,0,0,0,-8.3983,-8.4019,-8.4317,-8.433,-8.4124,-8.4268,-8.4292,-8.4364,-8.4478,-8.4491,-8.4396,-8.439,-8.458,-8.4601,-8.4622,-8.4833,-8.4681,-8.4693,-8.47,-8.5171,-8.5178,-8.5184,0,0,0,0,0,0,-8.3975,-8.401,-8.4309,-8.4174,-8.4212,-8.428,-8.4362,-8.4371,-8.4423,-8.4499,-8.451,-8.4437,-8.4577,-8.4605,-8.4759,-8.4839,-8.4699,-8.471,-8.5165,-8.5173,-8.5181,-8.5255,0,0,0,0,0,0,-8.3963,-8.4007,-8.4075,-8.4176,-8.4219,-8.4445,-8.4367,-8.4378,-8.4445,-8.4439,-8.454,-8.4552,-8.4576,-8.474,-8.4771,-8.4854,-8.4719,-8.5158,-8.5169,-8.5178,-8.5245,-8.5264,-8.5281,0,0,0,0,0,-8.3949,-8.4086,-8.4079,-8.4115,-8.4305,-8.4449,-8.4474,-8.4501,-8.4451,-8.4519,-8.4568,-8.4548,-8.4826,-8.4756,-8.4791,-8.4878,-8.5153,-8.5166,-8.5178,-8.5237,-8.5261,-8.528,0,0,0,0,0,0,-8.399,-8.4099,-8.4092,-8.4267,-8.4349,-8.4445,-8.4531,-8.4524,-8.462,-8.4611,-8.4638,-8.466,-8.4816,-8.4862,-8.4784,-8.5052,-8.4982,-8.5002,-8.5016,-8.5039,-8.5056,-8.5041,-8.473,0,0,0,0,0,-8.402,-8.413,-8.4218,-8.4364,-8.4406,-8.4462,-8.4525,-8.4539,-8.4625,-8.4659,-8.4719,-8.4801,-8.4906,-8.4975,-8.5076,-8.5252,-8.5273,-8.5329,-8.5347,-8.5361,-8.5377,-8.5474,-8.55,-8.5224,-8.5224,-8.5224,0,0,-8.4081,-8.4155,-8.4222,-8.4374,-8.4439,-8.4551,-8.4491,-8.4611,-8.4694,-8.4676,-8.4826,-8.4873,-8.4966,-8.5132,-8.5208,-8.5175,-8.5458,-8.5377,-8.5387,-8.5396,-8.5489,-8.5515,-8.5539,-8.5233,-8.5231,-8.523,0,0,-8.4251,-8.4318,-8.4447,-8.4515,-8.4616,-8.4653,-8.4684,-8.4782,-8.4813,-8.4965,-8.4954,-8.5051,-8.5233,-8.53,-8.5358,-8.5555,-8.5541,-8.5587,-8.5679,-8.5773,-8.5795,-8.5814,-8.5885,-8.591,-8.5604,-8.5604,-8.5604,0,-8.4314,-8.4485,-8.4513,-8.4637,-8.4703,-8.4696,-8.4826,-8.4889,-8.5017,-8.5063,-8.5025,-8.5253,-8.5315,-8.5497,-8.5546,-8.5593,-8.5628,-8.5576,-8.579,-8.581,-8.5828,-8.5896,-8.5922,-8.5609,-8.5608,-8.5608,-8.5607,0,-8.4558,-8.4676,-8.4767,-8.4895,-8.4972,-8.5097,-8.5144,-8.5218,-8.5226,-8.5266,-8.542,-8.5495,-8.5612,-8.5656,-8.5663,-8.5839,-8.5816,-8.5784,-8.5715,-8.5859,-8.5923,-8.5949,-8.5616,-8.5614,-8.5613,-8.5611,0,0,-8.4757,-8.4901,-8.4934,-8.4993,-8.5104,-8.5195,-8.532,-8.5437,-8.5501,-8.5589,-8.5694,-8.5849,-8.5821,-8.5886,-8.5901,-8.5984,-8.6136,-8.5942,-8.5944,-8.5975,-8.6335,-8.6358,-8.6388,-8.6127,-8.6132,-8.6136,-8.6327,0,-8.4938,-8.5163,-8.5193,-8.539,-8.55,-8.5495,-8.5604,-8.5683,-8.5724,-8.5821,-8.5865,-8.5975,-8.5929,-8.5969,-8.6051,-8.61,-8.6208,-8.6087,-8.6223,-8.6228,-8.62,-8.6421,-8.6446,-8.6622,-8.6352,-8.6356,-8.6359,0,-8.5179,-8.5278,-8.5487,-8.5586,-8.5633,-8.573,-8.5841,-8.5934,-8.6024,-8.6048,-8.6123,-8.6128,-8.6256,-8.6182,-8.6358,-8.6275,-8.6332,-8.6365,-8.6373,-8.6386,-8.6302,-8.644,-8.6679,-8.6705,-8.6399,-8.6396,-8.6393,0,-8.5304,-8.5489,-8.5639,-8.5689,-8.5807,-8.5876,-8.5928,-8.6014,-8.6082,-8.6178,-8.6223,-8.6331,-8.639,-8.6473,-8.6507,-8.645,-8.6681,-8.661,-8.6703,-8.6702,-8.6751,-8.6748,-8.7003,-8.6789,-8.6789,-8.6788,-8.6788,0,-8.5503,-8.5631,-8.5697,-8.5789,-8.5932,-8.5966,-8.6106,-8.6155,-8.6231,-8.6331,-8.6333,-8.6426,-8.6465,-8.6564,-8.6591,-8.6733,-8.6759,-8.6781,-8.6787,-8.6781,-8.6779,-8.6819,-8.6807,-8.6795,-8.6794,-8.6792,-8.6791,0,-8.5666,-8.5716,-8.5879,-8.5979,-8.6007,-8.6108,-8.6193,-8.6281,-8.6322,-8.6448,-8.648,-8.6543,-8.6661,-8.6703,-8.6844,-8.6862,-8.7026,-8.7022,-8.6997,-8.6998,-8.7089,-8.708,-8.7379,-8.742,-8.7179,-8.7182,-8.7184,0,-8.579,-8.5889,-8.6,-8.6069,-8.6125,-8.6235,-8.6306,-8.6342,-8.6416,-8.6527,-8.6602,-8.6719,-8.6815,-8.7002,-8.7059,-8.7167,-8.7165,-8.7262,-8.7181,-8.7172,-8.7166,-8.716,-8.717,-8.7277,-8.7279,-8.7281,-8.7283,0,-8.6003,-8.6024,-8.6127,-8.6241,-8.6327,-8.6417,-8.6504,-8.656,-8.6609,-8.6691,-8.6813,-8.6888,-8.7034,-8.715,-8.7261,-8.7312,-8.7306,-8.7308,-8.7336,-8.7331,-8.7312,-8.7324,-8.7038,-8.7301,-8.7299,-8.7298,-8.7297,-8.7296,-8.6151,-8.6239,-8.6332,-8.6448,-8.6518,-8.66,-8.6689,-8.6742,-8.6845,-8.6969,-8.6983,-8.7114,-8.7201,-8.7351,-8.7408,-8.7509,-8.7482,-8.7521,-8.7531,-8.754,-8.7547,-8.7297,-8.7529,-8.7528,-8.7528,-8.7528,-8.7527,0,-8.6364,-8.6425,-8.6531,-8.6655,-8.6746,-8.6736,-8.6832,-8.6908,-8.7024,-8.7108,-8.7203,-8.7342,-8.7455,-8.7523,-8.7636,-8.7704,-8.7703,-8.7732,-8.7727,-8.7739,-8.7565,-8.753,-8.773,-8.773,-8.773,-8.773,-8.773,-8.773,-8.6486,-8.6636,-8.6667,-8.6851,-8.691,-8.704,-8.7096,-8.7171,-8.7238,-8.7395,-8.749,-8.7534,-8.7611,-8.773,-8.7833,-8.785,-8.7891,-8.7922,-8.7936,-8.7772,-8.7751,-8.7731,-8.7698,-8.7931,-8.7931,-8.8101,-8.8103,-8.8104]}]]